N7NKE Weather Reports


time (UTC)temp
C
wind
direction
speed
KPH
gust
KPH
rain 1hr
cm
rain 24hr
cm
rain mn
cm
humidity
%
barometer
mb
20260507015005 17 340 9.7 14.5 0.00 0.00 0.00 68 1020.0
20260507014505 17 350 6.4 12.9 0.00 0.00 0.00 68 1020.0
20260507014005 18 348 8.0 19.3 0.00 0.00 0.00 67 1020.1
20260507013505 18 329 8.0 14.5 0.00 0.00 0.00 67 1020.0
20260507013005 18 358 6.4 12.9 0.00 0.00 0.00 67 1020.0
20260507012504 18 330 4.8 9.7 0.00 0.00 0.00 68 1019.9
20260507012004 18 341 8.0 12.9 0.00 0.00 0.00 68 1020.0
20260507011505 18 335 4.8 11.3 0.00 0.00 0.00 69 1020.0
20260507011004 18 336 6.4 11.3 0.00 0.00 0.00 69 1020.1
20260507010005 18 337 8.0 12.9 0.00 0.00 0.00 69 1020.1
20260507005505 18 351 6.4 14.5 0.00 0.00 0.00 69 1020.1
20260507004505 18 333 4.8 9.7 0.00 0.00 0.00 70 1020.0
20260507004004 18 343 4.8 8.0 0.00 0.00 0.00 70 1020.0
20260507003505 18 327 4.8 9.7 0.00 0.00 0.00 70 1020.0
20260507002504 19 358 4.8 12.9 0.00 0.00 0.00 68 1019.9
20260507002005 19 6 4.8 9.7 0.00 0.00 0.00 69 1019.9
20260507001505 19 356 4.8 11.3 0.00 0.00 0.00 68 1019.9
20260507001005 19 335 4.8 9.7 0.00 0.00 0.00 67 1019.8
20260507000505 18 332 4.8 9.7 0.00 0.00 0.00 67 1019.8
20260507000005 18 352 4.8 9.7 0.00 0.00 0.00 68 1019.9
20260506235504 18 333 4.8 8.0 0.00 0.00 0.00 67 1019.9
20260506235004 19 344 4.8 16.1 0.00 0.00 0.00 68 1019.9
20260506234505 19 349 4.8 11.3 0.00 0.00 0.00 68 1019.9
20260506234004 19 325 4.8 8.0 0.00 0.00 0.00 69 1019.9
20260506233504 19 319 4.8 9.7 0.00 0.00 0.00 68 1019.9
20260506233004 19 327 4.8 8.0 0.00 0.00 0.00 67 1019.8
20260506232005 19 347 4.8 9.7 0.00 0.00 0.00 68 1019.8
20260506231505 19 323 4.8 9.7 0.00 0.00 0.00 68 1019.8
20260506230504 20 323 3.2 4.8 0.00 0.00 0.00 69 1019.9
20260506230004 20 329 4.8 9.7 0.00 0.00 0.00 69 1019.9
20260506225504 20 347 3.2 4.8 0.00 0.00 0.00 69 1019.9
20260506225004 20 12 3.2 8.0 0.00 0.00 0.00 69 1019.9
20260506224504 20 356 1.6 3.2 0.00 0.00 0.00 69 1019.9
20260506224005 20 333 1.6 3.2 0.00 0.00 0.00 67 1020.0
20260506223504 20 333 1.6 4.8 0.00 0.00 0.00 67 1020.0
20260506223004 20 26 1.6 4.8 0.00 0.00 0.00 68 1020.0
20260506222504 20 59 3.2 4.8 0.00 0.00 0.00 69 1020.0
20260506222004 20 323 3.2 3.2 0.00 0.00 0.00 68 1020.0
20260506221506 20 332 1.6 4.8 0.00 0.00 0.00 69 1020.1
20260506220504 20 17 1.6 3.2 0.00 0.00 0.00 70 1020.0
20260506220005 20 339 3.2 4.8 0.00 0.00 0.00 70 1020.0
20260506215504 20 326 3.2 8.0 0.00 0.00 0.00 71 1019.9
20260506215006 20 6 3.2 8.0 0.00 0.00 0.00 70 1019.9
20260506214505 19 79 3.2 9.7 0.00 0.00 0.00 72 1019.9
20260506214005 19 13 1.6 4.8 0.00 0.00 0.00 72 1020.0
20260506213006 19 7 3.2 4.8 0.00 0.00 0.00 70 1020.1
20260506212505 20 336 3.2 4.8 0.00 0.00 0.00 70 1020.0
20260506212004 20 75 3.2 4.8 0.00 0.00 0.00 68 1020.1
20260506211505 20 353 1.6 8.0 0.00 0.00 0.00 69 1020.0
20260506211005 20 26 1.6 4.8 0.00 0.00 0.00 70 1020.0
20260506210504 20 143 3.2 12.9 0.00 0.00 0.00 70 1020.0
20260506205504 19 49 1.6 3.2 0.00 0.00 0.00 71 1020.2
20260506204505 19 54 3.2 8.0 0.00 0.00 0.00 71 1020.2
20260506204004 19 51 3.2 3.2 0.00 0.00 0.00 72 1020.2
20260506203505 18 51 4.8 11.3 0.00 0.00 0.00 71 1020.2
20260506202504 18 74 3.2 4.8 0.00 0.00 0.00 71 1020.3
20260506202005 18 248 1.6 8.0 0.00 0.00 0.00 68 1020.3
20260506201505 18 192 3.2 12.9 0.00 0.00 0.00 69 1020.2
20260506201004 18 90 1.6 8.0 0.00 0.00 0.00 70 1020.2
20260506200504 18 139 4.8 9.7 0.00 0.00 0.00 70 1020.3
20260506200004 18 308 3.2 11.3 0.00 0.00 0.00 70 1020.2
20260506195005 18 161 4.8 8.0 0.00 0.00 0.00 71 1020.4
20260506194004 18 80 3.2 8.0 0.00 0.00 0.00 72 1020.5
20260506193505 18 154 4.8 8.0 0.00 0.00 0.00 72 1020.5
20260506193004 18 205 1.6 4.8 0.00 0.00 0.00 73 1020.5
20260506192504 18 90 4.8 9.7 0.00 0.00 0.00 72 1020.5
20260506192004 18 94 4.8 8.0 0.00 0.00 0.00 74 1020.5
20260506191504 17 116 3.2 4.8 0.00 0.00 0.00 73 1020.5
20260506191004 17 161 1.6 3.2 0.00 0.00 0.00 72 1020.6
20260506190504 18 21 1.6 11.3 0.00 0.00 0.00 74 1020.5
20260506190005 18 169 9.7 14.5 0.00 0.00 0.00 72 1020.6
20260506185505 18 287 3.2 12.9 0.00 0.00 0.00 71 1020.6
20260506185004 18 120 8.0 16.1 0.00 0.00 0.00 72 1020.6
20260506184505 18 126 9.7 16.1 0.00 0.00 0.00 72 1020.5
20260506184005 17 109 4.8 19.3 0.00 0.00 0.00 74 1020.5
20260506183504 17 165 8.0 12.9 0.00 0.00 0.00 73 1020.6
20260506183006 17 147 9.7 14.5 0.00 0.00 0.00 75 1020.6
20260506182504 17 0 4.8 16.1 0.00 0.00 0.00 74 1020.6
20260506182004 17 203 4.8 14.5 0.00 0.00 0.00 74 1020.6
20260506181004 17 109 8.0 14.5 0.00 0.00 0.00 72 1020.5
20260506180504 17 120 8.0 14.5 0.00 0.00 0.00 74 1020.4
20260506180005 17 192 9.7 19.3 0.00 0.00 0.00 74 1020.4
20260506175504 17 164 8.0 14.5 0.00 0.00 0.00 77 1020.4
20260506175004 16 165 9.7 16.1 0.00 0.00 0.00 77 1020.5
20260506174004 16 212 3.2 9.7 0.00 0.00 0.00 78 1020.6
20260506173504 16 175 9.7 14.5 0.00 0.00 0.00 79 1020.6
20260506173004 16 177 6.4 12.9 0.00 0.00 0.00 79 1020.7
20260506172004 15 136 9.7 12.9 0.00 0.00 0.00 79 1020.5
20260506171505 15 139 1.6 4.8 0.00 0.00 0.00 79 1020.5
20260506171004 15 206 3.2 9.7 0.00 0.00 0.00 80 1020.5
20260506170504 15 336 6.4 9.7 0.00 0.00 0.00 80 1020.6
20260506170005 15 0 4.8 9.7 0.00 0.00 0.00 80 1020.6
20260506165504 15 187 3.2 9.7 0.00 0.00 0.00 81 1020.5
20260506164504 15 166 1.6 4.8 0.00 0.00 0.00 81 1020.5
20260506163004 14 110 3.2 11.3 0.00 0.00 0.00 82 1020.4
20260506161504 14 96 1.6 3.2 0.00 0.00 0.00 83 1020.7
20260506161005 14 97 0.0 3.2 0.00 0.00 0.00 83 1020.6
20260506160005 13 0 1.6 3.2 0.00 0.00 0.00 82 1020.5
20260506155004 13 0 0.0 4.8 0.00 0.00 0.00 83 1020.4
20260506153504 13 0 0.0 3.2 0.00 0.00 0.00 84 1020.2
20260506152504 13 83 3.2 3.2 0.00 0.00 0.00 84 1019.9
20260506152004 13 24 0.0 3.2 0.00 0.00 0.00 84 1019.9
20260506151505 13 56 0.0 3.2 0.00 0.00 0.00 85 1019.9
20260506151006 13 320 1.6 3.2 0.00 0.00 0.00 85 1020.1
20260506150005 13 83 3.2 4.8 0.00 0.00 0.00 86 1019.9
20260506145507 13 350 0.0 3.2 0.00 0.00 0.00 86 1020.3
20260506144505 13 352 0.0 3.2 0.00 0.00 0.00 87 1020.4
20260506142505 12 345 3.2 4.8 0.00 0.00 0.00 87 1020.4
20260506142005 12 349 3.2 4.8 0.00 0.00 0.00 87 1020.3
20260506141505 12 334 3.2 4.8 0.00 0.00 0.00 87 1020.2
20260506141005 12 8 3.2 4.8 0.00 0.00 0.00 87 1020.1
20260506140505 12 343 3.2 4.8 0.00 0.00 0.00 87 1020.1
20260506140005 12 352 1.6 3.2 0.00 0.00 0.00 87 1019.9
20260506135505 12 330 1.6 3.2 0.00 0.00 0.00 87 1019.7
20260506135005 12 338 0.0 3.2 0.00 0.00 0.00 88 1019.5
20260506134506 12 338 0.0 3.2 0.00 0.00 0.00 87 1019.5
20260506134005 12 338 1.6 3.2 0.00 0.00 0.00 87 1019.5
20260506133505 12 327 3.2 3.2 0.00 0.00 0.00 87 1019.6
20260506133006 12 327 3.2 4.8 0.00 0.00 0.00 88 1019.6
20260506132505 12 327 1.6 3.2 0.00 0.00 0.00 88 1019.6
20260506131005 12 328 3.2 4.8 0.00 0.00 0.00 88 1019.5
20260506130505 12 335 3.2 4.8 0.00 0.00 0.00 88 1019.4
20260506130005 12 330 1.6 4.8 0.00 0.00 0.00 88 1019.4
20260506125505 12 355 3.2 4.8 0.00 0.00 0.00 88 1019.3
20260506125005 12 337 1.6 3.2 0.00 0.00 0.00 88 1019.3
20260506124505 12 352 0.0 1.6 0.00 0.00 0.00 88 1019.1
20260506124005 12 353 1.6 3.2 0.00 0.00 0.00 88 1019.1
20260506123505 12 344 1.6 3.2 0.00 0.00 0.00 88 1019.0
20260506122506 12 24 1.6 3.2 0.00 0.00 0.00 88 1019.1
20260506122005 12 8 1.6 3.2 0.00 0.00 0.00 87 1018.9
20260506121506 12 21 1.6 3.2 0.00 0.00 0.00 87 1019.0
20260506121005 12 19 1.6 4.8 0.00 0.00 0.00 87 1018.9
20260506115505 13 13 1.6 3.2 0.00 0.00 0.00 86 1019.0
20260506115006 13 7 3.2 4.8 0.00 0.00 0.00 86 1018.9
20260506113505 13 350 1.6 3.2 0.00 0.00 0.00 86 1018.8
20260506113005 13 336 0.0 1.6 0.00 0.00 0.00 86 1018.9
20260506112005 13 342 1.6 3.2 0.00 0.00 0.00 85 1018.8
20260506111005 13 0 1.6 3.2 0.00 0.00 0.00 85 1018.7
20260506110505 13 320 3.2 9.7 0.00 0.00 0.00 86 1018.8
20260506110005 13 323 3.2 4.8 0.00 0.00 0.00 86 1018.7
20260506105505 13 0 1.6 4.8 0.00 0.00 0.00 86 1018.6
20260506105005 13 9 4.8 11.3 0.00 0.00 0.00 86 1018.5
20260506104505 13 337 1.6 4.8 0.00 0.00 0.00 87 1018.5
20260506104005 13 19 0.0 3.2 0.00 0.00 0.00 87 1018.3
20260506103505 13 7 1.6 3.2 0.00 0.00 0.00 87 1018.2
20260506103006 13 18 0.0 3.2 0.00 0.00 0.00 87 1018.3
20260506102505 13 12 0.0 3.2 0.00 0.00 0.00 87 1018.2
20260506102005 13 17 0.0 0.0 0.00 0.00 0.00 87 1018.1
20260506101505 13 17 1.6 3.2 0.00 0.00 0.00 87 1018.1
20260506101005 13 16 0.0 3.2 0.00 0.00 0.00 87 1018.0
20260506100505 13 11 1.6 1.6 0.00 0.00 0.00 87 1017.9
20260506095505 13 0 0.0 3.2 0.00 0.00 0.00 87 1017.8
20260506095005 13 0 0.0 1.6 0.00 0.00 0.00 87 1017.7
20260506094505 13 0 0.0 3.2 0.00 0.00 0.00 87 1017.7
20260506094005 13 26 0.0 3.2 0.00 0.00 0.00 87 1017.8
20260506093505 13 32 3.2 3.2 0.00 0.00 0.00 87 1017.7
20260506093005 13 34 1.6 3.2 0.00 0.00 0.00 87 1017.7
20260506092005 13 34 0.0 3.2 0.00 0.00 0.00 87 1017.7
20260506091005 13 14 1.6 3.2 0.00 0.00 0.00 87 1017.7
20260506090505 13 13 0.0 3.2 0.00 0.00 0.00 87 1017.7
20260506090006 13 13 0.0 0.0 0.00 0.00 0.00 87 1017.7
20260506085505 13 13 0.0 3.2 0.00 0.00 0.00 87 1017.6
20260506085005 13 13 0.0 3.2 0.00 0.00 0.00 87 1017.7
20260506082505 14 6 1.6 3.2 0.00 0.00 0.00 87 1017.6
20260506082006 14 6 0.0 3.2 0.00 0.00 0.00 87 1017.6
20260506081505 14 6 1.6 3.2 0.00 0.00 0.00 87 1017.6
20260506081005 14 6 0.0 3.2 0.00 0.00 0.00 86 1017.6
20260506080504 14 6 1.6 3.2 0.00 0.00 0.00 87 1017.6
20260506073505 14 71 0.0 0.0 0.00 0.00 0.00 86 1017.3
20260506073005 14 71 0.0 0.0 0.00 0.00 0.00 86 1017.2
20260506072505 14 71 0.0 0.0 0.00 0.00 0.00 86 1017.2
20260506072005 14 71 0.0 0.0 0.00 0.00 0.00 86 1017.2
20260506071505 14 71 0.0 0.0 0.00 0.00 0.00 86 1017.1
20260506071005 15 71 0.0 0.0 0.00 0.00 0.00 86 1017.1
20260506061505 15 71 0.0 0.0 0.00 0.00 0.00 85 1016.8
20260506061005 15 71 0.0 0.0 0.00 0.00 0.00 85 1016.8
20260506060504 15 71 0.0 0.0 0.00 0.00 0.00 85 1016.8
20260506050504 15 71 0.0 0.0 0.00 0.00 0.00 83 1016.5
20260506045005 15 71 0.0 0.0 0.00 0.00 0.00 83 1016.5
20260506044505 15 71 0.0 0.0 0.00 0.00 0.00 84 1016.5
20260506043505 14 71 0.0 0.0 0.00 0.00 0.00 84 1016.3
20260506043005 14 71 0.0 0.0 0.00 0.00 0.00 84 1016.3
20260506042504 14 71 0.0 0.0 0.00 0.00 0.00 84 1016.3
20260506041505 14 71 0.0 0.0 0.00 0.00 0.00 83 1016.2
20260506041005 14 71 0.0 0.0 0.00 0.00 0.00 83 1016.2
20260506040504 14 71 0.0 0.0 0.00 0.00 0.00 83 1016.1
20260506040006 14 71 0.0 0.0 0.00 0.00 0.00 83 1016.0
20260506035505 15 71 0.0 0.0 0.00 0.00 0.00 82 1016.0
20260506034505 15 71 0.0 0.0 0.00 0.00 0.00 82 1015.8
20260506034005 15 71 0.0 1.6 0.00 0.00 0.00 82 1015.8
20260506033505 15 70 1.6 1.6 0.00 0.00 0.00 81 1015.7
20260506033007 15 70 1.6 1.6 0.00 0.00 0.00 81 1015.6
20260506032504 15 70 1.6 3.2 0.00 0.00 0.00 80 1015.6
20260506032005 16 71 1.6 3.2 0.00 0.00 0.00 80 1015.5
20260506031506 16 71 0.0 1.6 0.00 0.00 0.00 79 1015.5
20260506031005 16 70 1.6 3.2 0.00 0.00 0.00 79 1015.4
20260506030504 16 71 0.0 1.6 0.00 0.00 0.00 78 1015.4
20260506030005 17 0 0.0 0.0 0.00 0.00 0.00 77 1015.4
20260506025505 17 0 0.0 0.0 0.00 0.00 0.00 76 1015.3
20260506025005 17 0 0.0 3.2 0.00 0.00 0.00 75 1015.2
20260506024505 18 71 0.0 3.2 0.00 0.00 0.00 74 1015.2
20260506024005 18 71 1.6 3.2 0.00 0.00 0.00 74 1015.1
20260506023505 18 71 1.6 1.6 0.00 0.00 0.00 73 1015.1
20260506023005 19 70 1.6 3.2 0.00 0.00 0.00 71 1015.0
20260506022505 19 70 1.6 3.2 0.00 0.00 0.00 71 1015.0
20260506022005 19 70 1.6 1.6 0.00 0.00 0.00 70 1015.0
20260506021505 19 70 1.6 3.2 0.00 0.00 0.00 70 1015.0
20260506020504 19 52 1.6 3.2 0.00 0.00 0.00 69 1015.0
20260506020005 19 47 3.2 3.2 0.00 0.00 0.00 69 1015.0
20260506015504 19 50 3.2 4.8 0.00 0.00 0.00 68 1014.9